Location: Ch�ze
(42.9000°N, 0.0333°W)
Time: 19:32:42
(UTC+00:00)

SAR-Lupe-4 - Pass Details

Date: 24 January 2021
Orbit: 480 x 484 km, 98.2° (Epoch: 02 March)

Event Time Altitude Azimuth Distance (km) Brightness Sun altitude
Exits shadow 18:24:14 15° 26° (NNE) 1,368 5.5 -14.9°
Maximum altitude 18:27:00 54° 101° (E) 590 3.6 -15.4°
Drops below altitude 10° 18:30:29 10° 180° (S) 1,652 6.4 -16.1°
Sets 18:32:34 0° 185° (S) 2,526 7.4 -16.4°
